FW7943 Weather Reports


time (UTC)temp
C
wind
direction
speed
KPH
gust
KPH
rain 1hr
cm
rain 24hr
cm
rain mn
cm
humidity
%
barometer
mb
20260502170220 7 319 6.4 8.0 0.00 0.00 0.00 55 1015.2
20260502164207 9 328 6.4 8.0 0.00 0.00 0.00 54 1015.3
20260502163702 9 50 8.0 14.5 0.00 0.00 0.00 53 1015.5
20260502163159 8 59 6.4 8.0 0.00 0.00 0.00 52 1015.4
20260502162656 8 314 1.6 3.2 0.00 0.00 0.00 56 1015.2
20260502162153 8 343 3.2 3.2 0.00 0.00 0.00 56 1015.6
20260502161650 8 316 4.8 4.8 0.00 0.00 0.00 55 1015.6
20260502161146 7 318 4.8 4.8 0.00 0.00 0.00 57 1015.6
20260502160645 7 317 4.8 8.0 0.00 0.00 0.00 56 1015.7
20260502160143 7 344 8.0 12.9 0.00 0.00 0.00 54 1015.7
20260502152103 8 339 4.8 8.0 0.00 0.00 0.00 53 1015.5
20260502151600 8 353 3.2 3.2 0.00 0.00 0.00 55 1015.4
20260502151057 8 313 6.4 9.7 0.00 0.00 0.00 56 1015.5
20260502150555 8 344 4.8 4.8 0.00 0.00 0.00 57 1015.7
20260502130440 5 337 3.2 3.2 0.00 0.00 0.00 75 1015.7
20260502123422 5 40 1.6 1.6 0.00 0.00 0.00 78 1015.3
20260502122920 5 352 1.6 1.6 0.00 0.00 0.00 77 1015.4
20260502122416 4 43 3.2 3.2 0.00 0.00 0.00 79 1015.5
20260502121914 4 335 1.6 1.6 0.00 0.00 0.00 81 1015.4
20260502121411 4 346 1.6 3.2 0.00 0.00 0.00 81 1015.4
20260502120908 3 341 1.6 1.6 0.00 0.00 0.00 82 1015.4
20260502120404 3 8 1.6 1.6 0.00 0.00 0.00 84 1015.4
20260502115902 3 316 0.0 1.6 0.00 0.00 0.00 85 1015.1
20260502115359 3 327 0.0 0.0 0.00 0.00 0.00 87 1014.9
20260502114855 3 333 0.0 0.0 0.00 0.00 0.00 88 1015.3
20260502114352 3 334 0.0 0.0 0.00 0.00 0.00 89 1015.2
20260502113849 3 335 0.0 0.0 0.00 0.00 0.00 90 1015.3
20260502113346 2 335 0.0 0.0 0.00 0.00 0.00 90 1015.3
20260502112845 2 334 0.0 0.0 0.00 0.00 0.00 91 1015.5
20260502112342 2 335 0.0 0.0 0.00 0.00 0.00 92 1015.3
20260502111839 2 341 0.0 0.0 0.00 0.00 0.00 92 1015.2
20260502111336 2 341 0.0 0.0 0.00 0.00 0.00 92 1015.1
20260502110834 2 341 0.0 0.0 0.00 0.00 0.00 92 1015.2
20260502110332 2 341 0.0 0.0 0.00 0.00 0.00 92 1015.2
20260502105829 2 341 0.0 0.0 0.00 0.00 0.00 92 1015.1
20260502105326 2 342 0.0 0.0 0.00 0.00 0.00 92 1015.1
20260502104824 2 341 0.0 0.0 0.00 0.00 0.00 92 1014.9
20260502104321 2 345 1.6 1.6 0.00 0.00 0.00 91 1014.9
20260502103818 2 349 0.0 0.0 0.00 0.00 0.00 91 1015.0
20260502103315 2 349 0.0 0.0 0.00 0.00 0.00 91 1015.2
20260502102813 2 349 0.0 0.0 0.00 0.00 0.00 90 1015.1
20260502102308 2 349 0.0 0.0 0.00 0.00 0.00 90 1015.2
20260502101807 2 349 0.0 0.0 0.00 0.00 0.00 90 1015.4
20260502101304 2 349 0.0 0.0 0.00 0.00 0.00 90 1015.4
20260502100803 2 350 0.0 0.0 0.00 0.00 0.00 90 1015.1
20260502100301 2 351 0.0 0.0 0.00 0.00 0.00 89 1015.0
20260502091235 3 348 0.0 0.0 0.00 0.00 0.00 87 1015.5
20260502090732 3 348 0.0 0.0 0.00 0.00 0.00 87 1015.3
20260502090229 3 327 0.0 0.0 0.00 0.00 0.00 87 1015.4
20260502071130 5 344 0.0 0.0 0.00 0.00 0.00 78 1015.4
20260502070628 5 340 3.2 3.2 0.00 0.00 0.00 78 1015.5
20260502070125 5 326 0.0 0.0 0.00 0.00 0.00 78 1015.4
20260502065624 5 346 1.6 1.6 0.00 0.00 0.00 77 1015.3
20260502065121 5 346 1.6 3.2 0.00 0.00 0.00 77 1015.3
20260502064620 5 333 0.0 0.0 0.00 0.00 0.00 76 1015.4
20260502064116 5 328 0.0 0.0 0.00 0.00 0.00 77 1015.2
20260502063614 5 340 0.0 0.0 0.00 0.00 0.00 76 1015.2
20260502063111 5 341 0.0 0.0 0.00 0.00 0.00 76 1015.3
20260502062608 5 342 0.0 0.0 0.00 0.00 0.00 76 1015.5
20260502062106 5 345 0.0 0.0 0.00 0.00 0.00 76 1015.5
20260502061604 5 321 0.0 1.6 0.00 0.00 0.00 76 1015.5
20260502061101 5 342 0.0 0.0 0.00 0.00 0.00 76 1016.0
20260502060556 5 342 0.0 0.0 0.00 0.00 0.00 76 1015.7
20260502060053 5 345 0.0 0.0 0.00 0.00 0.00 76 1015.6
20260502055551 5 334 0.0 0.0 0.00 0.00 0.00 75 1015.5
20260502055049 5 329 0.0 0.0 0.00 0.00 0.00 75 1015.6
20260502054548 5 336 0.0 1.6 0.00 0.00 0.00 74 1015.7
20260502054044 5 341 0.0 1.6 0.00 0.00 0.00 73 1015.5
20260502053541 5 332 0.0 0.0 0.00 0.00 0.00 74 1015.6
20260502053039 5 332 0.0 0.0 0.00 0.00 0.00 73 1015.7
20260502052537 5 324 1.6 1.6 0.00 0.00 0.00 73 1015.9
20260502052035 5 343 1.6 1.6 0.00 0.00 0.00 72 1015.7
20260502051533 6 341 1.6 3.2 0.00 0.00 0.00 72 1015.7
20260502051030 6 342 3.2 3.2 0.00 0.00 0.00 72 1016.0
20260502050526 6 332 1.6 3.2 0.00 0.00 0.00 73 1015.9
20260502050023 6 328 4.8 4.8 0.00 0.00 0.00 71 1015.9
20260502045520 6 359 1.6 1.6 0.00 0.00 0.00 72 1015.9
20260502045017 6 332 3.2 3.2 0.00 0.00 0.00 74 1016.1
20260502044514 6 326 3.2 4.8 0.00 0.00 0.00 75 1016.1
20260502044010 6 338 1.6 1.6 0.00 0.00 0.00 74 1016.0
20260502043508 6 308 3.2 3.2 0.00 0.00 0.00 73 1016.0
20260502043004 6 337 4.8 4.8 0.00 0.00 0.00 73 1016.0
20260502042459 6 329 1.6 3.2 0.00 0.00 0.00 73 1016.0
20260502041957 6 322 3.2 3.2 0.00 0.00 0.00 73 1015.6
20260502041455 6 350 3.2 3.2 0.00 0.00 0.00 74 1015.9
20260502040951 6 334 0.0 1.6 0.00 0.00 0.00 76 1015.9
20260502040448 6 336 3.2 3.2 0.00 0.00 0.00 78 1016.0
20260502035944 6 11 1.6 1.6 0.00 0.00 0.00 80 1015.7
20260502035440 7 328 3.2 3.2 0.00 0.00 0.00 80 1015.7
20260502034938 7 330 4.8 4.8 0.00 0.00 0.00 80 1015.6
20260502034436 7 329 1.6 3.2 0.00 0.00 0.00 79 1015.6
20260502033935 7 331 4.8 4.8 0.00 0.00 0.00 80 1015.6
20260502033432 7 323 3.2 4.8 0.00 0.00 0.00 79 1015.7
20260502032928 7 352 3.2 4.8 0.00 0.00 0.00 79 1015.7
20260502032425 7 336 3.2 3.2 0.00 0.00 0.00 78 1015.7
20260502031922 7 358 4.8 8.0 0.00 0.00 0.00 78 1015.7
20260502031421 7 337 3.2 4.8 0.00 0.00 0.00 78 1015.7
20260502030918 7 324 3.2 4.8 0.00 0.00 0.00 78 1015.6
20260502030416 7 319 4.8 4.8 0.00 0.00 0.00 79 1015.9
20260502025914 7 326 1.6 1.6 0.00 0.00 0.00 79 1015.5
20260502025411 7 321 3.2 3.2 0.00 0.00 0.00 78 1015.7
20260502024909 7 342 1.6 3.2 0.00 0.00 0.00 78 1015.7
20260502024407 7 333 1.6 3.2 0.00 0.00 0.00 77 1015.6
20260502023904 7 328 1.6 3.2 0.00 0.00 0.00 77 1015.5
20260502023401 7 335 4.8 4.8 0.00 0.00 0.00 76 1015.5
20260502022859 7 17 4.8 4.8 0.00 0.00 0.00 76 1015.4
20260502022355 7 326 3.2 3.2 0.00 0.00 0.00 77 1015.4
20260502021852 8 332 4.8 4.8 0.00 0.00 0.00 76 1015.5
20260502021349 8 9 1.6 1.6 0.00 0.00 0.00 75 1015.3
20260502020847 8 333 1.6 1.6 0.00 0.00 0.00 74 1015.2
20260502020344 8 335 1.6 3.2 0.00 0.00 0.00 74 1015.3
20260502015841 8 327 1.6 3.2 0.00 0.00 0.00 74 1015.2
20260502015338 8 336 3.2 3.2 0.00 0.00 0.00 73 1014.8
20260502014835 8 314 4.8 4.8 0.00 0.00 0.00 73 1014.9
20260502014332 8 343 1.6 3.2 0.00 0.00 0.00 72 1014.7
20260502013828 8 308 4.8 8.0 0.00 0.00 0.00 72 1014.5
20260502013324 8 324 3.2 3.2 0.00 0.00 0.00 73 1014.6
20260502012821 8 317 4.8 4.8 0.00 0.00 0.00 73 1014.5
20260502012319 8 17 4.8 8.0 0.00 0.00 0.00 73 1014.3
20260502011816 8 327 6.4 8.0 0.00 0.00 0.00 73 1014.3
20260502011312 8 317 4.8 8.0 0.00 0.00 0.00 73 1014.2
20260502010809 8 326 1.6 1.6 0.00 0.00 0.00 74 1014.0
20260502010305 8 307 4.8 4.8 0.00 0.00 0.00 75 1014.1
20260502005802 9 350 3.2 3.2 0.00 0.00 0.00 76 1014.0
20260502005300 9 320 3.2 3.2 0.00 0.00 0.00 76 1013.9
20260502004757 9 335 1.6 1.6 0.00 0.00 0.00 77 1013.9
20260502004253 9 325 3.2 4.8 0.00 0.00 0.00 76 1013.8
20260502003751 9 327 4.8 4.8 0.00 0.00 0.00 76 1013.7
20260502003248 9 334 3.2 4.8 0.00 0.00 0.00 75 1013.7
20260502002744 10 317 4.8 8.0 0.00 0.00 0.00 76 1013.6
20260502002242 10 331 3.2 3.2 0.00 0.00 0.00 76 1013.3
20260502001738 10 314 3.2 4.8 0.00 0.00 0.00 76 1013.5
20260502001237 10 332 3.2 3.2 0.00 0.00 0.00 77 1013.3
20260502000734 10 331 4.8 4.8 0.00 0.00 0.00 77 1013.2
20260502000233 10 0 4.8 8.0 0.00 0.00 0.00 77 1013.1
20260501235732 10 338 4.8 4.8 0.00 0.00 0.00 77 1012.9
20260501235229 10 307 4.8 8.0 0.00 0.00 0.00 76 1012.8
20260501234725 10 328 1.6 3.2 0.00 0.00 0.00 76 1012.9
20260501234222 10 332 4.8 8.0 0.00 0.00 0.00 76 1012.6
20260501233720 10 335 3.2 3.2 0.00 0.00 0.00 75 1012.4
20260501233217 10 268 6.4 9.7 0.00 0.00 0.00 73 1012.4
20260501232712 10 317 4.8 8.0 0.00 0.00 0.00 72 1012.2
20260501232210 11 295 9.7 11.3 0.00 0.00 0.00 71 1012.4
20260501231708 11 344 4.8 4.8 0.00 0.00 0.00 70 1012.4
20260501231206 11 294 4.8 8.0 0.00 0.00 0.00 69 1012.3
20260501230704 11 324 8.0 11.3 0.00 0.00 0.00 68 1012.4
20260501230202 11 329 4.8 4.8 0.00 0.00 0.00 66 1012.0
20260501225659 12 287 4.8 4.8 0.00 0.00 0.00 65 1012.3
20260501225156 12 328 6.4 8.0 0.00 0.00 0.00 61 1012.0
20260501224652 13 327 6.4 11.3 0.00 0.00 0.00 58 1012.1
20260501224150 13 325 8.0 9.7 0.00 0.00 0.00 54 1011.8
20260501223646 14 324 4.8 4.8 0.00 0.00 0.00 51 1012.0
20260501223143 14 315 4.8 4.8 0.00 0.00 0.00 49 1011.8
20260501222638 14 311 6.4 11.3 0.00 0.00 0.00 48 1011.7
20260501222136 14 31 3.2 4.8 0.00 0.00 0.00 47 1011.7
20260501221632 15 300 4.8 8.0 0.00 0.00 0.00 45 1011.8
20260501221130 15 224 8.0 9.7 0.00 0.00 0.00 46 1011.6
20260501220628 15 329 6.4 8.0 0.00 0.00 0.00 44 1011.2
20260501220124 15 280 8.0 11.3 0.00 0.00 0.00 42 1011.3
20260501215621 15 306 4.8 4.8 0.00 0.00 0.00 46 1011.6
20260501215116 15 291 9.7 12.9 0.00 0.00 0.00 43 1011.8
20260501214611 15 308 6.4 8.0 0.00 0.00 0.00 42 1011.4
20260501214107 15 312 6.4 8.0 0.00 0.00 0.00 41 1011.6
20260501213604 15 277 11.3 12.9 0.00 0.00 0.00 41 1011.6
20260501213100 15 296 8.0 11.3 0.00 0.00 0.00 41 1011.2
20260501212557 16 334 4.8 4.8 0.00 0.00 0.00 39 1011.3
20260501212054 15 307 3.2 4.8 0.00 0.00 0.00 40 1011.4
20260501211550 15 311 3.2 3.2 0.00 0.00 0.00 40 1011.3
20260501211049 15 292 4.8 4.8 0.00 0.00 0.00 40 1011.3
20260501210544 16 248 4.8 4.8 0.00 0.00 0.00 39 1011.4
20260501210042 16 270 11.3 11.3 0.00 0.00 0.00 36 1011.4
20260501205538 16 336 8.0 9.7 0.00 0.00 0.00 37 1011.4
20260501205036 15 307 4.8 4.8 0.00 0.00 0.00 39 1011.4
20260501204532 16 228 6.4 8.0 0.00 0.00 0.00 37 1011.7
20260501204028 15 274 6.4 9.7 0.00 0.00 0.00 37 1011.6
20260501203525 15 332 6.4 8.0 0.00 0.00 0.00 37 1011.6
20260501203022 16 294 4.8 8.0 0.00 0.00 0.00 37 1011.7
20260501202519 16 275 8.0 9.7 0.00 0.00 0.00 35 1011.6
20260501202015 16 302 8.0 9.7 0.00 0.00 0.00 36 1011.9
20260501201513 16 275 8.0 9.7 0.00 0.00 0.00 36 1011.6
20260501201009 16 327 8.0 9.7 0.00 0.00 0.00 35 1011.6
20260501200507 16 226 6.4 9.7 0.00 0.00 0.00 35 1011.7
20260501200004 16 294 11.3 14.5 0.00 0.00 0.00 35 1011.8
20260501195501 16 249 11.3 12.9 0.00 0.00 0.00 33 1011.6
20260501194956 17 267 6.4 8.0 0.00 0.00 0.00 34 1011.8
20260501194452 16 289 4.8 4.8 0.00 0.00 0.00 33 1011.8
20260501193948 16 288 8.0 11.3 0.00 0.00 0.00 32 1011.6
20260501193446 16 270 8.0 11.3 0.00 0.00 0.00 32 1011.8
20260501192944 16 288 8.0 12.9 0.00 0.00 0.00 34 1011.8
20260501192441 16 269 11.3 11.3 0.00 0.00 0.00 33 1012.0
20260501191938 16 226 9.7 14.5 0.00 0.00 0.00 33 1012.0
20260501191435 17 277 11.3 12.9 0.00 0.00 0.00 31 1012.0
20260501190932 16 271 12.9 16.1 0.00 0.00 0.00 30 1011.9
20260501190428 17 338 11.3 12.9 0.00 0.00 0.00 30 1011.7
20260501185923 17 310 4.8 9.7 0.00 0.00 0.00 31 1011.9
20260501185420 17 351 9.7 12.9 0.00 0.00 0.00 29 1012.0
20260501184915 17 260 6.4 8.0 0.00 0.00 0.00 30 1011.9
20260501184412 16 308 4.8 8.0 0.00 0.00 0.00 28 1012.2
20260501183907 16 297 9.7 11.3 0.00 0.00 0.00 30 1012.3
20260501183404 16 321 4.8 8.0 0.00 0.00 0.00 34 1012.2
20260501182901 16 304 8.0 9.7 0.00 0.00 0.00 29 1012.2
20260501182358 16 268 8.0 9.7 0.00 0.00 0.00 30 1012.4
20260501181854 16 286 8.0 11.3 0.00 0.00 0.00 31 1012.3
20260501181351 16 225 8.0 11.3 0.00 0.00 0.00 30 1012.4
20260501180849 16 296 4.8 4.8 0.00 0.00 0.00 31 1012.1
20260501180345 16 302 12.9 14.5 0.00 0.00 0.00 30 1012.3
20260501175842 16 274 8.0 9.7 0.00 0.00 0.00 32 1012.4
20260501175338 16 275 16.1 22.5 0.00 0.00 0.00 31 1012.6
20260501174836 15 308 8.0 11.3 0.00 0.00 0.00 27 1012.4
20260501174333 16 291 11.3 14.5 0.00 0.00 0.00 29 1012.2
20260501173831 16 323 4.8 8.0 0.00 0.00 0.00 31 1012.5
20260501173328 15 315 3.2 4.8 0.00 0.00 0.00 31 1012.5
20260501172823 16 303 6.4 9.7 0.00 0.00 0.00 30 1012.5
20260501172319 15 294 8.0 9.7 0.00 0.00 0.00 28 1012.5
20260501171815 15 294 3.2 3.2 0.00 0.00 0.00 30 1012.7